FW8660 Weather Reports


time (UTC)temp
C
wind
direction
speed
KPH
gust
KPH
rain 1hr
cm
rain 24hr
cm
rain mn
cm
humidity
%
barometer
mb
20260502224529 16 89 0.0 4.8 0.00 0.00 0.00 86 1017.3
20260502223027 16 0 0.0 0.0 0.00 0.00 0.00 86 1017.5
20260502221532 16 69 0.0 1.6 0.00 0.00 0.00 86 1017.4
20260502220029 16 0 0.0 3.2 0.00 0.00 0.00 86 1017.5
20260502214528 16 0 0.0 4.8 0.00 0.00 0.00 86 1017.6
20260502213029 16 52 1.6 6.4 0.00 0.00 0.00 86 1017.7
20260502211528 17 88 3.2 14.5 0.00 0.00 0.00 85 1017.9
20260502210030 17 97 4.8 16.1 0.00 0.00 0.00 85 1017.8
20260502204529 17 132 6.4 14.5 0.00 0.00 0.00 85 1017.8
20260502203028 17 104 8.0 14.5 0.00 0.00 0.00 84 1017.7
20260502201533 17 106 8.0 20.9 0.00 0.00 0.00 84 1017.3
20260502200029 17 80 11.3 17.7 0.00 0.00 0.00 84 1017.2
20260502194530 17 89 12.9 19.3 0.00 0.00 0.00 83 1017.0
20260502193028 17 84 12.9 20.9 0.00 0.00 0.00 82 1016.9
20260502191528 17 107 11.3 16.1 0.00 0.00 0.00 82 1017.1
20260502190035 17 86 11.3 19.3 0.00 0.00 0.00 81 1017.0
20260502184543 18 105 12.9 22.5 0.00 0.00 0.00 80 1017.0
20260502183035 18 78 11.3 22.5 0.00 0.00 0.00 79 1016.9
20260502181539 18 81 12.9 20.9 0.00 0.00 0.00 78 1017.0
20260502163031 20 71 12.9 25.7 0.00 0.00 0.00 73 1017.7
20260502161529 20 73 14.5 24.1 0.00 0.00 0.00 72 1017.6
20260502151534 20 95 11.3 19.3 0.00 0.00 0.00 72 1018.5
20260502123033 20 101 11.3 24.1 0.00 0.00 0.00 72 1019.6
20260502121536 21 112 17.7 27.4 0.00 0.00 0.00 70 1019.6
20260502114531 20 144 12.9 25.7 0.00 0.00 0.00 72 1020.0
20260502113032 20 136 6.4 24.1 0.00 0.00 0.00 73 1020.2
20260502111530 20 86 16.1 22.5 0.00 0.00 0.00 73 1020.1
20260502110030 20 126 8.0 22.5 0.00 0.00 0.00 74 1020.3
20260502104530 20 64 12.9 20.9 0.00 0.00 0.00 73 1020.4
20260502103031 20 81 11.3 24.1 0.00 0.00 0.00 74 1020.4
20260502101540 20 103 14.5 25.7 0.00 0.00 0.00 75 1020.6
20260502091528 19 98 14.5 25.7 0.00 0.00 0.00 77 1020.8
20260502071528 17 70 6.4 14.5 0.00 0.00 0.00 87 1021.0
20260502070028 17 0 0.0 3.2 0.00 0.00 0.00 87 1021.0
20260502064530 17 285 1.6 4.8 0.00 0.00 0.00 88 1021.2
20260502063030 17 90 0.0 3.2 0.00 0.00 0.00 88 1021.2
20260502061529 17 0 0.0 0.0 0.00 0.00 0.00 88 1021.1
20260502060030 16 0 0.0 0.0 0.00 0.00 0.00 87 1020.9
20260502054530 16 0 0.0 0.0 0.00 0.00 0.00 87 1020.8
20260502053028 16 0 0.0 1.6 0.00 0.00 0.00 87 1020.7
20260502051530 16 75 0.0 3.2 0.00 0.00 0.00 87 1020.6
20260502050037 16 0 0.0 1.6 0.00 0.00 0.00 87 1020.8
20260502044527 16 0 0.0 1.6 0.00 0.00 0.00 87 1020.6
20260502043030 16 0 0.0 1.6 0.00 0.00 0.00 87 1020.7
20260502041542 16 0 0.0 1.6 0.00 0.00 0.00 87 1020.7
20260502040031 16 0 0.0 0.0 0.00 0.00 0.00 87 1020.9
20260502034528 16 0 0.0 1.6 0.00 0.00 0.00 87 1021.0
20260502033031 16 0 0.0 1.6 0.00 0.00 0.00 87 1021.1
20260502031530 16 75 0.0 3.2 0.00 0.00 0.00 87 1021.1
20260502030031 16 76 0.0 4.8 0.00 0.00 0.00 87 1021.2
20260502024528 16 76 0.0 6.4 0.00 0.00 0.00 87 1021.1
20260502023031 16 111 1.6 4.8 0.00 0.00 0.00 87 1020.9
20260502021528 16 0 0.0 4.8 0.00 0.00 0.00 87 1021.2
20260502020028 16 0 0.0 1.6 0.00 0.00 0.00 87 1021.3
20260502014533 16 0 0.0 4.8 0.00 0.00 0.00 86 1021.3
20260502013028 16 104 0.0 3.2 0.00 0.00 0.00 86 1021.4
20260502011530 16 107 0.0 3.2 0.00 0.00 0.00 86 1021.6
20260502010030 16 0 0.0 3.2 0.00 0.00 0.00 86 1021.8
20260502004528 17 0 0.0 3.2 0.00 0.00 0.00 86 1021.9
20260502003034 17 0 0.0 0.0 0.00 0.00 0.00 86 1022.0
20260502001529 17 0 0.0 1.6 0.00 0.00 0.00 86 1022.4
20260502000030 17 0 0.0 0.0 0.00 0.00 0.00 86 1022.6
20260501234531 17 0 0.0 0.0 0.00 0.00 0.00 86 1022.6
20260501233031 17 0 0.0 0.0 0.00 0.00 0.00 86 1022.9
20260501231546 17 0 0.0 3.2 0.00 0.00 0.00 86 1022.8
20260501230029 17 0 0.0 6.4 0.00 0.00 0.00 86 1022.9